Wind_Speed
72 61 54 44 36 38 44 49 51 47 42 41 43 45 46 50 47 44 41 40 46 54 64 76 89 93 94 90 90 90 86 83 83 83 84 82 81 78
52 42 32 37 40 45 44 48 54 52 47 45 44 44 46 46 48 48 45 41 40 42 50 58 67 78 90 91 90 90 87 84 84 82 84 85 85 82
35 35 37 41 43 46 48 54 50 52 54 40 44 40 39 41 42 44 48 48 45 41 41 44 50 62 73 84 90 89 88 85 84 84 84 85 88 86
36 37 40 44 47 47 52 48 48 46 46 42 42 42 43 42 41 39 43 47 50 47 44 43 40 46 62 74 80 87 88 85 84 83 84 83 87 88
38 39 43 47 48 51 48 47 41 43 46 46 43 44 44 45 45 43 40 41 46 51 49 45 44 40 44 61 75 80 83 85 84 84 83 83 84 86
39 42 45 50 48 51 47 41 40 43 45 49 48 48 44 42 42 43 44 42 41 46 50 49 46 42 41 45 56 71 80 82 82 83 83 83 83 84
39 42 47 48 49 48 45 38 40 44 48 49 48 45 40 37 37 39 41 42 39 42 47 50 48 45 41 42 44 51 64 78 80 80 82 82 83 83
38 41 44 46 49 45 39 38 40 46 47 47 44 40 37 32 31 34 37 40 41 41 46 49 49 47 43 41 41 40 45 58 73 81 82 80 81 84
39 42 42 45 46 41 34 36 42 45 47 46 40 36 31 30 31 33 36 38 39 41 45 45 48 49 46 42 42 37 32 41 44 59 78 80 80 82
40 40 43 44 43 35 32 35 41 42 44 42 36 31 26 24 25 26 27 30 35 39 42 43 44 49 50 45 41 36 31 40 39 37 47 61 71 83
38 40 41 42 39 31 29 33 38 39 42 38 31 25 21 18 17 13 14 17 24 31 36 37 39 44 51 48 45 41 37 39 45 47 50 47 57 78
38 39 40 40 34 28 27 31 35 36 38 35 28 22 18 13 9 10 10 12 18 25 30 32 36 39 49 53 48 47 46 45 40 45 45 44 41 59
36 37 37 35 30 25 25 29 33 34 35 31 26 20 14 10 4 10 11 13 17 24 26 28 32 36 46 51 49 50 54 50 43 43 46 44 39 41
36 34 35 31 27 22 22 26 30 31 32 28 24 19 14 7 2 3 9 11 17 22 23 24 25 33 43 48 46 45 51 55 53 47 43 49 49 46
34 33 33 27 25 21 20 23 26 27 28 26 22 18 14 10 6 3 6 10 14 18 21 24 28 33 39 43 43 42 39 47 50 53 51 49 51 52
33 32 31 25 21 18 18 19 22 23 24 23 21 17 13 9 7 5 5 7 10 13 17 21 25 28 32 35 35 34 34 34 37 42 45 52 53 54
32 30 28 24 21 21 16 17 18 19 19 19 19 16 12 9 6 5 6 8 11 13 16 18 20 23 24 26 28 30 31 33 35 36 38 41 44 45
30 28 25 22 20 21 20 16 15 16 15 16 16 15 12 7 5 4 6 9 11 12 14 16 17 19 21 23 26 28 29 31 33 36 39 41 43 44
29 27 23 21 20 19 19 17 15 15 15 12 12 12 11 10 4 3 5 7 9 11 12 13 14 16 17 18 19 20 22 25 28 31 35 38 41 43
29 27 24 21 20 20 19 17 15 14 14 13 10 9 8 6 6 5 6 8 9 11 11 12 12 12 10 10 10 10 13 12 13 14 14 12 12 12
27 27 26 24 22 20 19 18 16 16 15 14 12 10 8 5 2 2 5 7 9 11 12 13 13 13 12 11 10 10 11 11 10 11 10 10 11 11
25 27 27 27 26 23 20 19 18 17 15 16 17 14 12 10 9 7 7 8 9 10 12 13 14 13 12 11 10 10 11 11 10 9 9 8 7 9
21 23 25 27 28 27 25 22 20 19 19 19 17 20 19 15 14 15 14 13 12 13 13 14 14 14 14 13 13 12 11 11 11 11 11 11 10 11
Wind_Direction
305 303 301 304 305 306 305 303 301 299 294 291 285 279 274 272 269 264 263 256 247 243 241 241 238 236 237 235 234 233 230 229 228 229 229 230 228 227
306 305 305 309 312 310 306 305 305 302 298 296 289 283 278 272 267 262 256 252 246 240 238 237 236 236 235 235 234 234 232 228 228 227 227 228 229 227
308 309 313 312 315 313 308 308 305 302 300 300 294 290 282 276 268 260 254 249 245 239 237 236 235 231 230 233 234 234 233 229 227 225 226 227 227 228
311 312 312 315 316 312 312 308 305 301 299 299 294 290 284 277 272 267 257 250 243 238 234 235 232 229 226 224 228 232 232 231 228 225 225 226 226 227
307 311 313 315 314 313 312 310 306 304 304 303 301 295 288 278 269 264 260 254 244 238 233 230 230 226 225 226 224 224 228 230 229 227 225 224 225 226
307 310 314 315 313 317 314 311 307 307 306 305 304 298 290 279 269 259 254 253 248 239 234 229 227 226 221 223 226 225 222 224 227 228 228 225 223 224
309 312 314 314 316 317 315 310 310 310 310 309 307 301 293 279 266 254 249 246 247 238 233 227 224 221 221 218 222 226 227 222 222 223 226 225 224 222
312 312 314 315 318 317 313 312 313 315 315 315 311 302 290 277 262 253 247 244 240 238 228 225 220 217 217 218 217 222 228 226 224 221 223 223 223 223
314 316 315 317 319 317 312 313 318 322 322 320 315 305 293 276 263 256 248 244 240 237 224 223 217 214 212 215 217 217 220 217 220 226 224 222 223 222
317 316 317 319 318 317 314 317 325 326 328 325 321 311 299 281 272 263 252 241 233 227 220 217 219 212 210 213 215 212 221 216 209 211 218 224 223 223
317 316 319 321 318 316 314 323 329 331 332 332 330 320 308 292 277 247 238 225 219 217 213 211 218 213 207 210 210 210 215 225 217 221 219 215 220 224
319 321 322 322 319 315 316 328 333 337 338 338 341 335 325 311 273 224 230 226 216 206 203 206 212 210 206 208 209 208 207 219 225 225 223 228 228 220
322 322 324 323 320 316 319 330 336 341 343 346 349 352 344 342 304 222 222 221 208 199 200 200 208 206 204 208 210 209 209 216 223 228 229 225 223 229
324 325 327 325 323 317 321 331 338 344 348 351 356 360 6 8 352 202 204 206 201 201 203 206 211 204 201 206 210 212 217 220 224 226 225 227 230 226
327 327 329 327 325 320 323 329 338 345 350 355 0 8 13 24 43 115 180 198 205 208 211 210 203 195 198 205 212 216 219 224 229 232 233 235 235 236
330 330 331 329 326 322 316 323 336 346 351 357 4 11 20 29 49 79 117 145 160 169 176 182 188 193 200 208 215 220 224 226 225 228 231 235 239 241
334 334 333 332 330 336 319 318 329 343 350 357 6 11 20 38 56 98 128 143 151 160 169 178 185 194 203 210 216 220 223 226 230 233 234 235 237 237
338 337 335 333 331 334 331 313 316 330 344 351 359 10 19 29 65 104 141 154 160 165 173 183 192 202 212 220 225 228 230 232 233 234 237 239 240 239
341 340 339 334 329 326 332 323 306 310 324 338 346 356 13 25 45 149 173 171 170 178 186 195 202 207 211 218 223 228 228 227 228 232 236 240 245 245
343 343 342 337 330 328 322 324 318 293 297 309 319 328 345 12 49 82 125 148 161 165 166 164 164 165 168 171 173 178 182 186 191 197 203 210 215 222
342 345 346 344 339 331 325 320 316 314 287 281 290 294 291 303 309 131 130 134 139 145 152 160 162 162 160 159 161 160 161 169 174 180 187 196 204 211
335 343 347 349 346 343 334 322 311 299 301 283 269 270 270 259 251 231 210 192 183 181 182 182 181 177 175 176 179 183 186 186 186 188 187 187 192 209
321 330 339 347 351 350 345 337 323 307 290 279 276 259 256 256 248 244 226 218 214 207 202 200 198 194 194 196 199 201 206 209 210 212 213 215 215 214
Height
5494 5484 5477 5470 5465 5459 5453 5447 5441 5439 5439 5439 5434 5429 5426 5423 5425 5425 5426 5428 5430 5435 5441 5450 5464 5478 5489 5502 5514 5527 5542 5556 5570 5583 5596 5607 5617 5629
5479 5472 5466 5461 5455 5448 5441 5435 5428 5421 5419 5420 5418 5414 5410 5409 5408 5409 5411 5414 5417 5420 5424 5430 5439 5451 5465 5477 5491 5503 5518 5534 5547 5561 5574 5586 5597 5608
5468 5462 5456 5450 5444 5437 5430 5423 5415 5407 5400 5408 5399 5398 5396 5393 5392 5392 5394 5397 5402 5408 5412 5416 5422 5431 5442 5454 5467 5480 5495 5512 5526 5540 5553 5566 5576 5589
5459 5453 5447 5440 5434 5427 5419 5411 5403 5395 5389 5391 5387 5384 5380 5378 5376 5377 5377 5380 5385 5392 5398 5403 5409 5415 5423 5432 5444 5458 5473 5488 5505 5520 5530 5548 5555 5568
5450 5444 5438 5430 5423 5416 5408 5400 5392 5385 5378 5373 5373 5368 5363 5360 5360 5361 5363 5364 5368 5374 5382 5390 5396 5402 5409 5416 5424 5436 5450 5465 5485 5496 5511 5525 5539 5549
5439 5434 5427 5420 5412 5404 5396 5388 5382 5375 5368 5360 5356 5349 5345 5342 5341 5344 5346 5350 5354 5359 5367 5376 5384 5391 5397 5404 5412 5420 5430 5443 5461 5477 5491 5505 5518 5530
5430 5424 5417 5409 5400 5392 5385 5379 5372 5365 5357 5348 5340 5332 5327 5324 5324 5326 5330 5333 5340 5345 5351 5360 5370 5380 5388 5395 5401 5407 5415 5427 5441 5455 5469 5484 5497 5511
5421 5415 5408 5400 5392 5383 5376 5369 5363 5354 5345 5335 5326 5318 5312 5310 5310 5311 5314 5319 5326 5330 5336 5346 5358 5368 5377 5385 5393 5399 5405 5415 5424 5436 5450 5464 5477 5490
5412 5406 5399 5390 5382 5375 5368 5362 5354 5343 5332 5322 5313 5305 5300 5297 5297 5299 5301 5305 5311 5317 5325 5334 5345 5356 5366 5375 5384 5392 5398 5405 5413 5421 5433 5447 5459 5472
5403 5397 5390 5382 5373 5367 5361 5354 5346 5335 5325 5313 5303 5295 5290 5287 5286 5286 5287 5291 5297 5304 5313 5324 5333 5345 5356 5365 5374 5384 5390 5396 5405 5412 5421 5430 5442 5453
5395 5388 5381 5373 5365 5359 5354 5348 5339 5329 5318 5307 5297 5289 5283 5280 5279 5279 5282 5285 5290 5296 5305 5316 5324 5335 5345 5355 5365 5374 5381 5387 5394 5403 5410 5419 5427 5437
5387 5380 5372 5365 5358 5353 5348 5342 5334 5324 5314 5303 5294 5286 5280 5277 5276 5278 5280 5283 5287 5292 5301 5310 5317 5326 5336 5345 5355 5364 5372 5378 5386 5393 5402 5409 5416 5424
5380 5373 5365 5358 5352 5346 5342 5336 5329 5321 5312 5302 5293 5286 5280 5277 5275 5277 5279 5281 5285 5290 5297 5305 5311 5320 5329 5338 5347 5356 5364 5372 5379 5386 5393 5401 5407 5414
5373 5366 5359 5351 5346 5341 5337 5332 5326 5319 5310 5302 5294 5288 5282 5278 5277 5277 5279 5281 5285 5289 5295 5302 5308 5315 5323 5333 5342 5350 5357 5364 5371 5378 5385 5392 5398 5405
5366 5359 5353 5346 5341 5336 5333 5329 5324 5317 5311 5303 5296 5290 5286 5282 5279 5278 5279 5282 5285 5289 5294 5298 5304 5311 5320 5328 5336 5343 5350 5357 5363 5369 5376 5381 5387 5392
5359 5353 5347 5341 5337 5332 5329 5326 5322 5317 5311 5305 5299 5294 5290 5286 5284 5282 5282 5283 5286 5289 5293 5298 5304 5311 5318 5325 5331 5337 5343 5349 5355 5361 5366 5371 5375 5378
5354 5348 5342 5336 5332 5328 5325 5323 5320 5316 5311 5307 5302 5297 5293 5291 5289 5288 5287 5288 5290 5292 5296 5301 5306 5312 5317 5322 5327 5332 5337 5341 5345 5350 5354 5357 5360 5364
5349 5343 5338 5333 5329 5325 5321 5319 5317 5314 5311 5308 5304 5300 5296 5294 5292 5291 5291 5292 5293 5296 5299 5302 5306 5310 5314 5318 5322 5325 5329 5333 5336 5339 5342 5345 5348 5352
5345 5340 5335 5330 5326 5322 5319 5316 5314 5312 5310 5307 5305 5302 5299 5296 5294 5293 5293 5294 5295 5297 5299 5302 5305 5308 5310 5313 5316 5317 5320 5324 5327 5331 5333 5335 5338 5341
5342 5337 5332 5327 5323 5319 5315 5313 5310 5309 5307 5306 5304 5303 5301 5299 5297 5295 5295 5295 5296 5297 5299 5301 5304 5307 5309 5311 5313 5315 5317 5319 5322 5324 5327 5329 5331 5331
5339 5334 5329 5324 5320 5316 5312 5309 5306 5304 5303 5303 5302 5301 5300 5300 5299 5298 5297 5297 5298 5299 5300 5303 5305 5307 5309 5311 5313 5315 5317 5319 5321 5323 5325 5326 5328 5329
5335 5331 5326 5322 5317 5313 5309 5305 5302 5300 5299 5298 5298 5298 5297 5298 5298 5298 5298 5298 5299 5300 5302 5303 5305 5307 5309 5310 5313 5315 5317 5318 5320 5322 5323 5325 5326 5327
5332 5328 5324 5319 5315 5310 5305 5301 5297 5294 5292 5292 5291 5292 5293 5293 5294 5294 5295 5296 5297 5299 5300 5301 5303 5305 5307 5308 5310 5312 5314 5316 5318 5319 5321 5322 5324 5325